Simultaneous Nadir Overpasses (SNOs) Predictions

Prediction of SNOs between GOES-17 and METOP-C Satellite Orbit:

Table of predicted SNOs for the next 14.0 days since TLE Epoch: 6/26/2021
Index Date Time (GOES-17) GOES-17 Lat,Lon METOP-C Lat,Lon Distance(km) Time Diff (sec)
1 06/26/2021 06:38:45 -0.03,-137.19 0.14,-136.49 80.47 80
2 06/27/2021 18:54:56 0.02,-137.20 0.88,-141.05 439.04 80
3 06/28/2021 18:36:57 0.02,-137.19 -0.25,-136.06 129.83 80
4 06/30/2021 06:53:16 -0.02,-137.18 -0.79,-140.65 395.37 80
5 07/01/2021 06:35:16 -0.02,-137.18 0.35,-135.66 173.40 80
6 07/02/2021 18:51:28 0.02,-137.18 0.68,-140.22 346.63 80
7 07/03/2021 18:33:27 0.02,-137.17 -0.40,-135.22 221.94 80
8 07/05/2021 06:52:27 -0.02,-137.15 -0.62,-139.81 303.78 80
9 07/06/2021 06:29:07 -0.02,-137.14 0.51,-134.82 264.24 80
10 07/07/2021 18:47:58 0.02,-137.13 0.52,-139.38 257.33 80
11 07/08/2021 18:29:59 0.01,-137.11 -0.61,-134.39 310.10 80
